Wichita, KS

4:44 AM CDT on March 27, 2017 (GMT -0500)
Wichita Eisenhower National Airport

Weather History for KICT - December, 2014

Change the Weather History Date:

Sunday, December 7, 2014

  Actual Average Record
Temperature  
Mean Temperature 43 °F 36 °F  
Max Temperature 48 °F 46 °F 75 °F (1966)
Min Temperature 38 °F 26 °F 0 °F (1917)
Degree Days  
Heating Degree Days 22 29  
Month to date heating degree days 187 198  
Since 1 July heating degree days 1067 1074  
Cooling Degree Days 0 0  
Month to date cooling degree days 0 0  
Year to date cooling degree days 1849 1686  
Moisture  
Dew Point 40 °F    
Average Humidity 95    
Maximum Humidity 100    
Minimum Humidity 89    
Precipitation  
Precipitation T in 0.05 in 1.83 in (1980)
Month to date precipitation 0.57 0.31  
Year to date precipitation 24.88 31.75  
Snow  
Snow 0.00 in 0.10 in 5.00 in (1892)
Month to date snowfall 0.0 0.8  
Since 1 July snowfall 1.8 2.2  
Snow Depth 0.00 in    
Sea Level Pressure  
Sea Level Pressure 30.33 in    
Wind  
Wind Speed 11 mph (South)    
Max Wind Speed 18 mph    
Max Gust Speed 21 mph    
Visibility 2 miles    
Events Fog    
T = Trace of Precipitation, MM = Missing Value Source: NWS Daily Summary

Daily Weather History Graph

Daily Weather History Graph

Search for Another Location

Airport or City:

Trip Planner

Search our weather history database for the weather conditions in past years. The results will help you decide how hot, cold, wet, or windy it might be!

Date:

Astronomy

Dec. 07, 2014 Rise Set
Actual Time 7:31 AM CST 5:10 PM CST
Civil Twilight 7:02 AM CST 5:40 PM CST
Nautical Twilight 6:29 AM CST 6:12 PM CST
Astronomical Twilight 5:57 AM CST 6:44 PM CST
Moon 6:39 PM CST (12/7) 8:17 AM CST (12/7)
Length of Visible Light 10h 37m
Length of Day
9h 39m
Full, 98% of the Moon is Illuminated
Dec 7
Full
Dec 14
Last Quarter
Dec 21
New
Dec 28
First Quarter
Jan 4
Full

Hourly Weather History & Observations

Time (CST) Temp. Windchill Dew Point Humidity Pressure Visibility Wind Dir Wind Speed Gust Speed Precip Events Conditions
12:53 AM 39.9 °F 35.8 °F 37.9 °F 93% 30.49 in 4.0 mi SSE 5.8 mph - N/A   Overcast
1:53 AM 39.0 °F 32.8 °F 37.0 °F 93% 30.47 in 3.0 mi SE 9.2 mph - N/A   Overcast
2:53 AM 39.9 °F 34.5 °F 37.0 °F 89% 30.46 in 4.0 mi SSE 8.1 mph - N/A   Overcast
3:16 AM 39.0 °F 32.3 °F 37.0 °F 93% 30.43 in 2.5 mi SSE 10.4 mph - N/A   Overcast
3:43 AM 39.0 °F 31.8 °F 37.0 °F 93% 30.41 in 1.8 mi SE 11.5 mph - N/A   Overcast
3:53 AM 39.0 °F 32.3 °F 37.0 °F 93% 30.43 in 2.5 mi SSE 10.4 mph - N/A   Overcast
4:53 AM 39.0 °F 31.8 °F 37.0 °F 93% 30.42 in 2.5 mi SSE 11.5 mph - N/A   Overcast
5:29 AM 39.0 °F 32.8 °F 37.0 °F 93% 30.39 in 0.8 mi SSE 9.2 mph - N/A   Overcast
5:53 AM 39.0 °F 32.3 °F 37.0 °F 93% 30.42 in 0.5 mi SSE 10.4 mph - N/A Fog Fog
6:53 AM 37.9 °F 30.9 °F 37.0 °F 97% 30.39 in 0.5 mi SSE 10.4 mph - N/A   Overcast
7:25 AM 37.9 °F 30.5 °F 37.0 °F 97% 30.38 in 0.1 mi SSE 11.5 mph - 0.00 in Fog Light Drizzle
7:42 AM 37.9 °F 29.6 °F 37.0 °F 97% 30.38 in 0.1 mi SSE 13.8 mph - 0.00 in Fog Light Drizzle
7:48 AM 37.4 °F 29.8 °F 37.4 °F 100% 30.39 in 0.1 mi SSE 11.5 mph - 0.00 in Fog Light Drizzle
7:53 AM 37.9 °F 31.5 °F 37.0 °F 97% 30.41 in 0.1 mi SSE 9.2 mph - 0.00 in Fog Light Drizzle
8:01 AM 37.9 °F 30.5 °F 37.0 °F 97% 30.38 in 0.2 mi South 11.5 mph - 0.00 in Fog Light Drizzle
8:53 AM 37.9 °F 29.6 °F 37.0 °F 97% 30.39 in 0.2 mi South 13.8 mph - 0.00 in Fog Fog
9:19 AM 37.9 °F 29.2 °F 37.0 °F 97% 30.37 in 0.8 mi South 15.0 mph - N/A   Overcast
9:27 AM 39.0 °F 30.3 °F 37.0 °F 93% 30.38 in 0.2 mi South 16.1 mph - N/A Fog Fog
9:38 AM 39.0 °F 31.4 °F 37.0 °F 93% 30.37 in 0.8 mi South 12.7 mph - N/A   Overcast
9:53 AM 39.0 °F 32.3 °F 37.0 °F 93% 30.40 in 0.5 mi SSE 10.4 mph - N/A   Overcast
10:53 AM 39.9 °F 31.8 °F 37.9 °F 93% 30.38 in 0.5 mi South 15.0 mph - N/A   Overcast
11:53 AM 39.9 °F 31.1 °F 39.0 °F 97% 30.35 in 0.8 mi South 17.3 mph - N/A   Overcast
12:00 PM 41.0 °F 33.5 °F 39.0 °F 93% 30.31 in 1.0 mi South 13.8 mph - N/A   Overcast
12:53 PM 42.1 °F 34.9 °F 39.9 °F 92% 30.30 in 1.0 mi South 13.8 mph - N/A   Overcast
1:36 PM 43.0 °F 36.8 °F 39.9 °F 89% 30.26 in 2.0 mi South 11.5 mph - N/A   Overcast
1:48 PM 42.8 °F 35.4 °F 39.2 °F 87% 30.25 in 1.2 mi South 15.0 mph - N/A   Overcast
1:53 PM 43.0 °F 36.0 °F 39.9 °F 89% 30.26 in 1.0 mi South 13.8 mph - N/A   Overcast
2:04 PM 43.0 °F 36.0 °F 39.9 °F 89% 30.24 in 0.8 mi SSE 13.8 mph - N/A   Overcast
2:53 PM 43.0 °F 36.4 °F 41.0 °F 93% 30.26 in 0.2 mi South 12.7 mph - N/A Fog Fog
3:53 PM 44.1 °F 37.4 °F 42.1 °F 93% 30.24 in 0.2 mi South 13.8 mph - N/A Fog Fog
4:44 PM 44.1 °F 37.7 °F 43.0 °F 96% 30.22 in 0.2 mi South 12.7 mph - N/A Fog Fog
4:53 PM 44.1 °F 38.1 °F 43.0 °F 96% 30.23 in 0.2 mi South 11.5 mph - N/A Fog Fog
5:00 PM 44.1 °F 38.1 °F 43.0 °F 96% 30.21 in 0.1 mi South 11.5 mph - N/A Fog Fog
5:24 PM 45.0 °F 38.5 °F 43.0 °F 93% 30.22 in 1.0 mi South 13.8 mph - N/A   Overcast
5:34 PM 45.0 °F 39.7 °F 43.0 °F 93% 30.21 in 5.0 mi South 10.4 mph - N/A   Overcast
5:53 PM 45.0 °F 38.5 °F 43.0 °F 93% 30.24 in 4.0 mi SSW 13.8 mph - N/A   Overcast
6:53 PM 45.0 °F 38.9 °F 43.0 °F 93% 30.24 in 2.0 mi SSW 12.7 mph - 0.00 in   Light Drizzle
7:53 PM 46.0 °F 41.0 °F 44.1 °F 93% 30.24 in 1.0 mi SSW 10.4 mph - 0.00 in   Light Drizzle
8:53 PM 46.9 °F - 45.0 °F 93% 30.24 in 1.0 mi SSW 9.2 mph - 0.00 in   Light Drizzle
9:39 PM 46.9 °F - 45.0 °F 93% 30.22 in 4.0 mi SW 10.4 mph - 0.00 in   Overcast
9:53 PM 46.9 °F - 45.0 °F 93% 30.25 in 5.0 mi SW 6.9 mph - 0.00 in   Overcast
10:53 PM 46.9 °F - 45.0 °F 93% 30.25 in 6.0 mi SW 5.8 mph - N/A   Overcast
11:53 PM 48.0 °F - 45.0 °F 89% 30.25 in 8.0 mi SW 8.1 mph - N/A   Overcast